Wind_Speed
14 15 12 12 16 11 7 9 10 13 17 16 13 14 15 15 13 14 12 11 11 10
13 14 16 14 7 7 9 10 16 15 11 13 19 15 13 13 16 15 14 11 13 14
17 17 12 10 12 13 15 14 13 14 12 17 16 15 15 15 15 17 16 16 16 17
15 12 9 10 12 13 16 13 14 16 15 16 16 16 17 18 19 17 16 10 9 13
16 10 11 10 12 16 19 17 17 16 16 17 17 17 18 15 13 5 6 10 14 20
18 10 10 9 10 12 16 16 15 15 15 15 16 17 16 9 9 11 14 18 20 21
14 12 8 6 9 12 12 13 12 17 16 16 18 13 11 14 15 16 18 20 22 24
20 11 5 7 8 11 10 10 12 15 16 15 10 11 13 15 18 21 23 24 25 22
31 12 10 9 12 10 10 10 8 11 11 7 9 10 16 21 21 23 22 24 23 23
15 9 11 10 12 10 9 9 9 10 5 7 11 14 21 21 21 21 23 22 22 27
6 10 14 16 11 4 6 10 12 3 5 10 15 19 20 19 22 21 21 21 22 25
21 14 11 10 6 10 10 11 0 4 9 14 18 18 20 22 19 21 19 19 21 24
15 6 5 7 10 5 9 1 3 7 12 17 18 18 19 16 18 17 19 20 22 21
16 10 8 6 6 7 5 5 7 12 15 17 16 16 16 14 17 20 20 19 21 23
Wind_Direction
17 5 5 354 335 339 355 340 329 330 329 337 334 329 327 323 320 319 324 316 314 309
7 357 347 342 359 12 1 344 329 334 338 341 333 335 332 329 331 327 320 312 303 298
354 349 345 354 354 343 341 342 343 333 314 320 322 322 316 307 302 295 295 299 299 304
348 337 333 349 349 341 334 326 320 321 325 318 315 314 304 310 306 303 305 316 342 334
331 307 308 336 335 333 325 321 316 314 312 319 317 316 316 318 328 329 335 335 332 334
318 279 302 329 332 333 330 327 328 321 325 329 332 329 328 333 341 348 337 332 328 325
291 273 289 293 315 324 328 327 327 327 332 335 335 331 348 346 341 339 335 331 326 320
281 243 251 275 285 297 301 311 326 329 329 336 348 354 349 343 341 339 335 333 329 322
306 231 283 259 284 290 306 308 324 332 336 339 346 347 339 334 334 335 337 336 326 321
293 286 267 274 287 302 304 329 343 331 319 340 340 339 336 328 327 330 331 329 327 327
320 309 299 286 267 290 338 335 320 341 348 338 338 336 335 330 325 323 321 319 319 320
323 315 297 313 332 330 329 311 324 354 347 348 346 343 337 335 328 326 325 324 323 317
339 306 310 315 263 295 319 260 40 16 1 359 352 347 343 337 336 342 335 324 317 316
320 298 319 270 304 329 32 88 30 7 6 3 357 352 352 1 350 341 328 325 322 319
Height
842 840 838 835 833 831 829 826 825 824 824 823 821 819 818 816 813 811 809 809 807 806
838 836 835 833 830 828 828 826 825 823 821 820 819 817 815 814 812 810 808 806 805 804
835 834 832 831 829 828 827 825 823 822 820 819 818 815 813 811 809 807 805 803 802 801
833 833 831 829 828 827 826 824 822 820 818 817 815 813 811 809 806 804 802 801 799 798
833 831 829 827 826 825 824 823 820 818 817 815 813 811 808 805 803 801 799 798 796 794
828 826 825 825 824 822 822 821 818 816 815 813 810 808 806 803 801 799 797 795 793 792
822 820 819 818 819 818 817 817 816 815 813 810 807 804 802 801 799 797 795 793 791 788
817 813 813 813 812 812 812 811 811 811 809 807 804 803 801 799 797 794 791 788 786 783
815 810 811 810 809 808 807 807 805 805 805 803 802 800 799 796 793 791 787 784 781 778
811 810 808 806 808 804 804 805 802 801 801 801 799 798 796 793 789 787 784 781 778 774
809 809 806 804 800 801 801 801 800 797 798 798 797 795 792 789 786 783 780 777 774 771
806 806 805 803 800 799 798 798 797 795 796 795 794 791 788 785 782 779 776 774 771 768
803 802 801 800 798 796 793 794 794 793 794 793 791 789 786 783 779 776 773 770 767 763
800 797 796 797 796 793 792 791 791 792 791 790 789 787 785 782 778 775 771 767 763 758